This is the latest recevied weather packets stored in our database for station/object XE1GMR. If no packets are shown the sender has not sent any weather packets the latest 10 day(s).
| Time | Temp. | Humidity | Pressure | Rain* | Wind** | Luminosity | Snow |
|---|---|---|---|---|---|---|---|
| 1778276966 | 30° C | 33% | 1116.9 hPa | 0 mm | - | 409 W/m² | - |
| 1778276665 | 28.89° C | 36% | 1117.2 hPa | 0 mm | - | 484 W/m² | - |
| 1778276360 | 29.44° C | 36% | 1117.3 hPa | 0 mm | - | 492 W/m² | - |
| 1778276058 | 29.44° C | 36% | 1117.3 hPa | 0 mm | - | 494 W/m² | - |
| 1778275753 | 30° C | 35% | 1117.3 hPa | 0 mm | - | 519 W/m² | - |
| 1778275450 | 29.44° C | 35% | 1117.2 hPa | 0 mm | - | 517 W/m² | - |
| 1778275146 | 29.44° C | 34% | 1117.2 hPa | 0 mm | - | 533 W/m² | - |
| 1778274841 | 30° C | 35% | 1117.3 hPa | 0 mm | - | 542 W/m² | - |
| 1778274540 | 29.44° C | 35% | 1117.3 hPa | 0 mm | - | 569 W/m² | - |
| 1778274235 | 30° C | 34% | 1117 hPa | 0 mm | - | 607 W/m² | - |
| 1778273932 | 30° C | 35% | 1117.5 hPa | 0 mm | - | 606 W/m² | - |
| 1778273629 | 29.44° C | 36% | 1117.7 hPa | 0 mm | - | 633 W/m² | - |
| 1778273325 | 29.44° C | 36% | 1117.8 hPa | 0 mm | - | 642 W/m² | - |
| 1778273022 | 30° C | 36% | 1117.7 hPa | 0 mm | - | 688 W/m² | - |
| 1778272718 | 29.44° C | 37% | 1118.1 hPa | 0 mm | - | 693 W/m² | - |
| 1778272414 | 29.44° C | 37% | 1118 hPa | 0 mm | - | 653 W/m² | - |
| 1778272110 | 29.44° C | 38% | 1118.3 hPa | 0 mm | - | 656 W/m² | - |
| 1778271808 | 28.89° C | 39% | 1118.2 hPa | 0 mm | - | 573 W/m² | - |
| 1778271505 | 28.33° C | 40% | 1118 hPa | 0 mm | - | 497 W/m² | - |
| 1778271202 | 28.33° C | 40% | 1118.4 hPa | 0 mm | - | 388 W/m² | - |
| 1778270893 | 28.89° C | 39% | 1118.1 hPa | 0 mm | - | 399 W/m² | - |
| 1778270590 | 28.89° C | 39% | 1118.3 hPa | 0 mm | - | 435 W/m² | - |
| 1778270286 | 28.89° C | 39% | 1118.5 hPa | 0 mm | - | 537 W/m² | - |
| 1778269982 | 29.44° C | 38% | 1118.6 hPa | 0 mm | - | 679 W/m² | - |
| 1778269679 | 29.44° C | 39% | 1118.6 hPa | 0 mm | - | 661 W/m² | - |
* Rain latest hour (hover to see other rain measurements)
** Current wind speed in m/s (hover to see current wind gust speed)